Temp
21 22 25 28 27 29 29 30 32 31 31 32 31 31 32 27 25 25 22 23 24 22 20 18 19 19 18 18 18 19 19 20 20 18 18 18 19 18 18 18 18 18 17 17 17 17 17 18 18
24 25 26 29 27 28 30 32 30 31 31 30 29 29 30 24 24 22 21 21 21 21 20 18 18 18 18 18 18 19 19 19 18 18 18 18 18 18 18 18 18 17 17 17 17 17 17 18 18
22 25 28 29 29 29 28 30 30 30 30 29 30 27 21 20 22 22 21 21 20 21 21 18 18 18 17 18 18 18 18 18 18 18 18 18 18 18 18 17 17 17 17 17 17 17 18 18 18
26 28 29 27 28 30 30 30 30 30 30 30 30 25 21 17 18 18 18 21 19 19 19 18 17 17 17 18 18 18 18 18 17 17 17 17 18 18 18 18 17 17 17 17 17 18 18 18 18
26 29 28 28 29 29 30 30 30 29 30 30 29 26 22 18 17 18 17 19 18 18 18 18 17 17 17 18 17 17 18 17 17 17 17 17 18 18 18 18 18 18 17 18 18 18 18 18 18
28 29 28 29 29 29 30 30 29 28 29 29 29 25 21 17 17 17 18 18 18 18 17 17 17 17 17 17 17 17 17 17 16 17 17 17 18 18 18 19 19 19 18 18 18 18 18 18 17
28 29 28 28 28 24 28 29 29 28 28 29 29 25 19 17 15 16 16 17 17 17 16 16 16 16 16 16 17 17 16 17 16 16 17 18 18 18 18 19 19 18 18 18 18 18 18 17 17
28 29 29 29 28 24 28 29 28 27 29 28 28 26 22 16 15 15 15 16 15 16 16 16 16 15 16 16 16 16 17 16 16 16 17 18 18 18 18 18 18 18 18 18 18 17 17 17 17
29 28 27 28 28 28 29 28 29 27 27 27 23 21 17 15 14 14 14 14 14 14 15 15 15 15 15 16 16 16 16 16 17 17 17 17 18 18 18 18 18 18 18 18 17 17 17 17 16
28 29 28 29 29 28 28 28 28 27 27 24 17 16 15 15 16 16 14 13 12 12 13 14 14 14 15 15 16 15 16 16 16 17 17 18 18 17 17 17 17 17 17 17 17 17 17 17 18
29 28 29 29 28 29 26 27 26 26 19 17 20 16 16 16 16 15 14 13 12 12 12 12 12 13 13 15 14 13 14 16 16 16 17 17 18 18 16 17 17 17 17 16 16 17 18 17 18
28 29 29 29 29 28 28 26 24 25 22 20 18 17 17 17 17 14 13 12 12 12 11 11 11 12 13 12 13 13 14 15 16 16 17 17 17 17 17 17 17 17 17 17 17 17 16 16 16
28 29 29 29 28 28 28 27 27 23 22 21 18 18 19 19 18 15 13 12 11 11 11 11 11 11 11 12 14 15 16 17 17 18 17 18 18 18 18 19 18 18 17 17 17 16 17 16 16
29 29 29 29 29 28 26 26 26 24 24 21 21 19 16 18 19 17 14 12 11 11 10 10 11 11 12 14 15 16 17 18 18 18 18 18 18 18 18 17 18 18 18 18 18 17 17 17 16
28 28 29 29 29 28 25 21 25 24 24 22 20 21 19 17 18 20 17 14 12 12 12 11 12 14 15 16 16 17 17 18 18 18 18 18 18 17 18 18 18 18 18 18 17 17 17 17 16
28 29 26 27 29 29 23 18 25 25 25 24 24 23 23 22 22 20 19 17 15 12 13 14 15 15 15 15 16 17 18 18 19 19 17 17 17 17 17 18 18 18 17 17 17 17 17 17 17
29 27 25 26 29 29 24 17 26 26 26 25 25 25 25 23 23 20 18 17 16 15 15 15 15 16 16 17 17 18 18 17 18 19 17 17 17 17 17 18 17 16 17 17 17 17 17 16 16
28 28 29 26 27 28 28 28 27 26 26 26 26 25 25 24 24 22 20 19 18 17 16 17 16 16 16 16 17 18 18 18 19 18 18 18 18 17 17 18 17 16 17 17 17 16 16 16 16
28 28 28 28 27 28 28 26 28 27 26 25 26 25 26 25 24 22 22 20 20 19 18 18 18 18 17 17 18 19 19 19 19 17 18 18 18 17 17 17 16 16 17 17 16 15 15 15 14
27 28 28 29 29 28 29 29 26 28 27 27 27 26 26 26 25 23 22 22 21 20 19 19 19 19 19 19 20 20 20 20 20 17 18 18 17 17 16 17 16 16 17 16 15 15 15 15 14
27 27 27 28 28 29 29 28 29 29 28 28 27 28 27 27 26 25 23 22 21 21 21 20 20 20 20 20 20 20 20 20 20 18 17 17 17 17 17 16 16 16 16 15 14 14 15 15 14
27 29 27 27 27 26 29 25 28 29 28 28 27 28 28 27 27 26 25 23 22 22 21 21 21 21 21 20 21 20 20 20 20 19 18 17 16 16 17 16 16 16 15 15 14 14 14 14 14
27 28 27 28 27 27 27 27 26 29 28 28 28 28 28 28 28 28 26 25 23 22 22 21 21 21 21 20 20 21 20 20 20 19 17 16 17 16 16 16 15 15 14 14 14 14 13 12 11
28 27 27 27 27 25 26 27 25 28 29 29 30 29 28 28 28 29 28 26 25 24 23 22 22 22 22 21 20 20 20 20 21 20 18 17 16 15 15 15 14 13 13 13 13 12 10 10 10
27 26 25 24 25 24 28 27 28 27 30 30 30 30 30 29 29 29 29 28 27 25 24 23 22 22 22 21 20 20 20 20 20 20 17 17 15 13 12 12 11 11 11 11 10 10 10 9 9
26 27 25 20 21 25 26 25 28 30 30 30 30 30 31 30 30 29 29 29 28 27 25 23 23 22 22 21 21 20 19 19 19 18 17 15 13 12 12 13 9 9 10 9 8 9 9 8 7
27 26 28 26 25 24 26 28 29 30 30 29 30 29 30 30 30 30 30 29 28 28 26 24 23 23 23 22 21 20 18 18 18 17 16 13 13 12 12 10 9 10 9 7 8 7 7 7 8
27 28 25 26 21 22 26 27 27 28 29 29 29 29 30 29 29 29 29 29 29 28 27 25 24 23 23 22 21 19 19 18 17 16 13 12 11 10 10 9 8 8 7 8 6 6 7 8 8
26 26 26 26 26 23 24 26 29 28 29 29 29 29 29 29 29 27 27 27 28 27 26 25 24 23 23 22 21 19 18 18 16 14 12 11 10 10 11 9 8 7 7 6 6 6 7 8 8
28 27 27 25 24 25 24 25 29 29 29 29 29 29 29 28 28 28 27 26 26 25 25 25 24 23 23 22 21 19 17 16 15 12 11 11 11 11 10 10 8 6 6 6 6 6 7 8 6
Height
778 778 776 769 776 757 753 737 717 727 726 718 712 708 721 738 758 765 759 757 756 765 773 779 783 787 792 796 799 803 807 810 813 816 819 822 824 827 831 833 836 838 841 844 845 845 846 849 849
778 776 773 760 772 758 740 721 735 730 723 727 734 732 726 752 753 759 767 762 759 761 774 778 783 788 793 798 802 805 809 812 815 820 823 826 827 830 834 837 840 842 844 846 849 848 850 853 853
778 775 766 757 755 755 750 730 732 732 733 736 733 741 758 763 762 762 763 761 762 769 777 777 783 789 795 799 803 806 811 814 819 822 826 829 831 832 836 839 842 844 848 849 852 852 853 856 855
773 765 759 766 757 738 739 735 736 736 732 732 726 744 758 769 763 767 773 766 763 767 775 778 783 790 795 800 805 808 813 817 822 825 829 833 834 835 838 842 844 846 850 851 855 855 856 858 858
771 757 761 755 749 741 738 735 736 741 732 733 730 743 760 765 766 762 760 755 755 766 776 782 787 793 798 803 806 811 814 821 824 829 832 835 836 837 840 843 846 848 851 854 856 857 859 861 861
763 755 759 750 743 741 737 734 737 741 738 736 731 746 766 764 771 775 768 766 765 770 779 784 791 796 801 804 807 813 817 824 829 832 834 836 838 841 843 844 847 849 854 856 858 859 861 862 864
764 756 754 751 749 766 744 738 740 744 740 729 713 749 764 768 771 770 766 767 771 778 780 791 795 801 804 807 811 815 820 828 833 836 836 838 842 844 847 847 849 852 856 859 860 861 862 865 866
760 755 752 749 753 780 744 741 742 745 735 722 738 748 765 775 777 776 777 777 781 781 785 793 800 803 807 812 817 820 822 831 835 840 842 843 846 847 849 851 853 855 858 860 862 863 865 866 866
758 758 761 750 751 750 740 747 736 744 747 745 755 760 769 776 778 779 782 783 783 786 788 793 800 806 811 816 824 826 830 832 838 843 846 849 849 852 854 854 855 858 860 862 864 865 866 867 868
759 751 751 745 747 750 745 746 742 744 742 752 772 775 775 779 780 783 786 788 791 792 793 796 802 807 811 816 823 829 833 838 846 849 849 853 852 854 856 857 858 861 861 864 866 867 867 867 868
751 758 746 744 751 746 754 749 748 743 760 759 765 777 780 782 782 786 789 792 794 796 797 800 801 805 810 817 824 830 840 845 847 850 851 854 853 858 859 860 861 863 864 866 868 866 868 869 870
761 747 747 745 747 746 747 751 758 750 760 767 776 780 782 783 786 790 792 796 799 802 803 806 812 814 819 823 832 840 843 842 846 849 853 851 857 860 862 862 863 864 864 866 868 867 868 870 870
757 750 745 741 746 747 745 747 746 762 766 772 780 781 781 784 786 793 797 799 801 804 807 811 814 819 824 828 833 839 840 843 847 849 852 854 858 860 861 862 862 863 865 865 867 867 870 871 871
750 750 746 742 743 745 754 752 752 761 762 771 774 782 787 788 788 794 800 803 806 808 812 816 820 825 827 831 835 837 840 843 848 851 853 855 858 860 861 861 861 862 863 865 866 867 869 870 872
752 755 743 742 742 745 753 776 757 760 761 770 777 778 786 791 789 790 799 804 808 813 817 821 826 830 833 834 839 842 843 846 849 850 852 855 857 858 859 860 861 862 863 864 866 867 869 870 872
754 745 761 751 741 740 763 790 755 755 756 763 768 776 778 783 785 792 796 802 808 814 819 825 827 831 834 837 840 842 844 845 847 848 850 853 854 856 857 859 859 861 862 863 865 866 868 869 870
747 758 767 755 737 737 755 786 750 751 753 760 761 766 770 779 782 792 798 803 808 813 818 823 827 831 833 836 838 841 843 844 845 847 848 851 853 853 855 856 858 860 861 862 864 865 866 867 869
753 748 742 754 745 741 744 739 743 749 752 756 758 764 769 774 780 786 795 802 806 811 817 820 825 829 832 834 836 838 840 842 842 843 846 848 850 851 852 855 855 857 859 861 863 863 865 865 865
746 745 744 742 746 742 739 747 737 744 751 759 755 763 765 770 777 787 791 797 803 808 812 816 820 824 827 831 831 832 834 837 839 842 843 844 847 849 850 852 854 855 856 860 862 861 864 865 864
750 751 744 739 735 742 735 737 750 739 747 749 753 759 760 765 771 781 788 790 796 801 806 811 815 818 821 823 823 827 830 832 834 839 839 842 844 845 846 850 850 853 853 856 858 860 861 861 862
750 748 749 746 740 735 737 737 735 731 737 742 746 746 752 757 763 772 780 784 790 794 799 804 808 812 815 816 819 823 825 828 829 832 835 838 839 841 843 846 846 850 851 851 854 856 857 858 860
752 735 746 746 750 758 734 764 741 728 736 739 742 744 746 750 754 762 771 777 782 788 793 797 801 804 808 811 812 816 818 820 823 827 831 833 835 836 839 842 843 846 848 848 851 853 854 855 857
745 740 743 743 744 743 743 754 748 728 736 734 734 738 741 743 746 751 759 767 774 780 784 790 794 797 801 805 808 811 814 816 818 821 826 831 831 833 835 839 841 843 845 847 848 850 852 854 856
731 744 746 744 745 763 748 745 758 732 724 720 717 724 732 736 738 742 747 757 764 771 778 783 787 790 794 798 802 804 807 811 811 814 819 823 825 828 833 836 838 840 842 844 849 850 850 852 855
738 748 766 771 763 765 734 745 735 738 711 716 719 714 718 726 732 734 739 745 752 759 768 774 779 782 786 790 794 798 801 805 808 808 813 819 823 824 826 830 835 836 839 840 838 845 848 849 853
739 740 756 797 789 756 741 753 732 707 707 712 714 713 713 713 721 726 730 736 742 749 757 765 770 774 778 781 784 790 794 798 802 804 809 812 816 820 817 820 829 832 835 835 840 841 845 849 849
732 739 726 743 746 757 744 728 714 710 712 714 713 715 713 715 716 718 723 728 734 740 748 755 762 766 771 773 782 787 790 792 797 800 804 805 804 804 810 818 824 826 830 832 835 838 842 845 844
727 718 745 741 778 775 744 733 733 722 717 715 716 713 713 714 717 718 719 721 726 732 738 748 754 759 763 768 774 778 784 787 792 796 797 799 804 807 808 812 816 821 823 825 829 834 836 839 840
732 734 729 730 735 760 758 739 710 712 714 715 712 715 715 715 716 720 722 723 725 729 735 741 749 754 757 763 768 773 778 782 786 789 793 797 799 804 806 807 812 815 817 820 825 831 835 835 837
707 718 721 741 748 742 743 739 707 708 708 709 713 712 713 715 715 718 723 726 728 731 734 739 746 751 754 760 765 769 774 778 782 785 789 793 795 800 801 804 807 811 814 819 824 830 831 836 836
Wind_Speed
5 6 11 12 7 8 17 17 5 7 6 6 12 7 5 9 5 3 5 5 26 27 27 27 29 32 33 32 33 30 27 25 26 26 27 29 30 29 26 25 25 25 25 24 23 24 24 24 24
8 8 13 8 8 13 12 15 4 8 9 6 5 11 8 11 13 3 1 6 27 32 29 27 31 33 32 33 31 29 27 27 27 28 29 30 31 28 26 26 26 26 26 24 22 24 24 23 23
7 9 10 9 12 14 9 9 7 8 4 9 3 8 4 3 6 12 2 15 29 29 30 29 34 34 33 33 31 29 28 29 29 30 30 30 30 29 29 28 27 27 24 23 22 23 23 21 22
8 11 7 9 15 7 11 9 4 9 7 5 1 7 7 4 2 7 22 16 30 35 27 32 34 34 35 33 31 30 30 30 30 31 31 28 29 30 29 28 26 26 23 23 23 23 22 20 20
14 7 9 13 10 6 5 5 6 9 7 6 7 7 7 8 2 1 22 20 29 37 26 34 34 33 32 31 30 31 31 30 31 31 30 29 29 29 29 27 26 25 24 24 23 21 20 18 19
9 4 11 8 5 3 5 5 7 4 5 4 9 10 3 10 2 3 7 10 15 24 28 33 30 31 31 31 31 31 32 29 29 30 30 29 28 27 27 27 26 26 25 24 21 19 18 16 16
12 8 9 4 2 14 7 4 6 4 4 9 14 6 5 7 7 5 13 14 15 23 31 27 26 26 28 29 31 33 32 31 29 27 29 29 27 26 25 26 26 25 25 21 19 17 16 14 14
8 6 7 3 4 5 9 4 3 7 5 11 9 4 5 4 9 17 20 24 26 29 34 33 31 27 25 24 27 32 34 30 28 25 26 25 25 26 24 24 23 23 21 18 16 15 14 13 12
7 10 1 5 10 12 9 10 6 3 5 1 14 10 12 17 14 19 20 22 23 25 35 35 32 27 24 26 25 27 30 29 25 23 23 20 23 19 16 18 20 19 17 16 14 13 12 10 11
11 10 3 5 6 10 11 8 6 5 10 7 10 13 15 14 10 16 16 16 18 22 26 37 36 27 33 29 27 24 24 25 19 19 17 15 18 13 14 18 18 16 16 15 13 13 10 5 6
7 9 9 8 8 9 4 7 4 10 8 18 10 10 10 11 13 13 14 16 19 22 27 28 34 36 31 32 31 30 23 24 19 14 13 14 15 15 14 17 16 15 15 12 11 7 5 6 5
10 4 6 7 6 3 3 1 4 11 7 10 11 10 10 11 11 14 15 16 18 21 24 32 29 34 37 40 35 26 24 20 17 13 11 15 13 14 12 14 13 14 12 11 7 6 6 6 7
10 8 7 6 3 2 1 8 1 8 11 14 11 9 8 8 13 17 17 17 22 18 21 25 34 31 30 28 28 23 20 15 13 14 11 13 12 12 12 12 13 11 11 9 8 7 6 4 4
6 10 12 4 5 5 2 3 7 9 11 11 9 12 7 7 12 20 18 19 19 21 24 23 25 28 31 27 28 25 17 17 13 12 13 11 11 12 11 12 12 11 10 9 7 7 5 3 3
11 13 10 9 7 6 7 18 5 13 14 11 10 11 14 13 14 14 19 20 21 23 19 25 29 31 31 25 30 27 17 16 18 16 14 14 14 14 12 12 11 11 9 9 7 7 5 4 3
14 13 4 14 8 7 17 12 13 12 11 13 16 17 15 13 17 15 18 22 23 22 22 25 28 22 23 30 29 20 17 17 17 16 15 17 15 14 12 11 11 10 10 10 9 7 6 5 4
13 11 11 17 7 9 10 19 17 12 10 12 13 13 12 15 17 20 18 22 24 27 29 27 26 27 27 25 14 16 15 15 18 19 16 16 16 15 12 11 11 11 10 9 9 8 7 6 5
10 14 10 5 8 9 8 5 15 12 10 12 14 12 12 13 12 20 23 22 23 27 28 25 24 24 25 19 16 17 18 19 21 14 17 16 16 14 13 12 11 12 11 10 11 8 6 5 4
10 8 12 10 14 8 8 14 5 14 10 11 11 13 13 13 17 17 20 25 23 26 27 26 25 25 24 21 23 21 21 21 18 16 17 15 16 15 14 13 13 13 13 13 11 9 8 7 6
11 12 13 5 4 5 9 11 15 13 12 14 13 15 14 14 16 20 23 24 28 27 26 27 27 25 24 23 22 20 20 22 20 17 17 17 17 16 15 16 15 16 16 14 13 12 11 8 8
13 16 3 7 4 10 11 12 10 10 12 13 13 15 15 17 18 19 23 26 26 28 30 29 28 27 26 24 21 20 19 20 20 17 17 18 18 19 19 18 17 18 17 16 16 14 12 10 8
15 12 5 4 8 5 10 1 12 14 14 15 15 14 15 18 18 19 23 27 29 29 28 28 28 28 28 26 23 24 23 23 20 21 19 19 21 20 20 19 19 18 17 16 16 13 12 8 7
8 10 7 12 12 7 8 8 6 9 12 16 17 17 17 17 19 21 23 30 31 31 31 30 29 29 28 27 27 25 24 22 21 21 19 23 20 20 19 19 18 18 16 14 14 13 12 8 7
6 6 9 13 12 9 10 13 7 10 12 11 19 19 20 19 20 20 27 29 29 30 31 31 31 30 29 29 29 28 25 26 23 22 20 20 20 18 18 16 16 16 14 12 10 11 11 4 10
11 12 10 8 9 10 6 5 9 9 4 3 2 9 21 20 20 20 21 23 28 31 30 30 32 32 31 31 30 31 29 27 25 19 19 19 18 18 22 21 17 17 19 19 23 16 13 14 18
18 17 12 5 9 9 4 7 11 4 6 0 6 8 9 17 21 21 22 25 28 30 32 32 32 32 32 33 35 31 29 27 22 21 19 21 22 23 22 28 28 26 28 24 17 19 16 18 12
12 16 21 19 6 6 10 8 5 10 6 6 5 3 7 10 11 19 21 28 29 30 30 31 32 31 31 33 26 26 24 24 23 20 22 24 31 32 28 22 24 31 26 22 22 19 20 15 14
12 5 13 10 12 11 14 13 4 8 8 5 6 4 1 3 3 7 13 20 27 28 28 29 31 30 29 26 26 27 25 23 23 21 23 26 23 20 19 24 23 26 28 28 24 24 19 16 13
10 12 9 8 13 10 10 10 2 4 3 4 5 3 2 2 3 4 5 10 15 19 23 25 26 27 26 24 23 21 20 22 24 22 20 19 17 18 21 23 24 28 33 28 26 20 17 15 12
17 17 18 10 13 12 10 11 5 5 8 1 6 6 2 1 1 4 6 7 10 14 17 19 20 22 21 19 20 20 20 21 23 21 17 19 19 20 22 22 24 28 30 23 19 18 14 14 9
Wind_Direction
269 260 256 258 244 226 260 233 283 336 269 20 321 317 211 53 8 169 23 101 144 144 152 156 162 162 161 158 157 154 151 145 143 139 135 133 128 126 124 122 121 116 115 113 108 102 99 95 92
270 260 244 270 255 261 232 228 164 240 2 37 240 310 282 109 41 51 80 131 145 144 156 154 163 162 161 159 157 154 150 146 143 138 136 134 130 125 121 120 118 118 117 113 108 103 100 96 94
259 256 268 245 243 264 25 28 16 332 303 252 204 73 19 73 326 355 328 171 155 153 159 154 159 162 161 159 155 149 149 147 143 140 137 135 131 125 123 121 120 118 116 111 110 108 103 99 91
247 219 230 251 272 255 303 21 341 268 190 225 297 101 119 243 266 33 328 198 156 158 153 160 159 162 159 156 152 149 148 146 143 141 139 136 131 126 123 123 123 120 117 114 115 111 104 97 89
239 261 264 245 278 317 295 300 304 300 305 340 256 123 98 143 290 114 210 195 170 153 154 160 160 156 155 155 152 149 148 146 145 143 141 137 132 128 127 127 127 123 123 122 117 113 105 99 89
251 254 255 268 126 186 227 351 314 313 300 190 249 119 94 71 58 143 186 158 156 149 151 155 154 151 153 153 151 148 146 144 146 145 141 142 138 133 128 126 125 125 126 125 120 117 111 101 94
261 277 298 270 6 23 59 1 304 320 250 204 337 80 62 58 35 71 94 124 130 137 136 139 141 148 146 148 150 149 146 151 147 147 146 143 137 130 130 124 124 127 129 127 123 119 113 108 98
292 269 236 323 337 218 40 294 311 274 354 18 331 161 170 104 101 101 104 116 122 139 146 142 140 139 144 144 146 148 146 150 148 150 141 139 135 131 129 126 127 130 132 131 127 125 122 112 92
257 260 275 56 347 345 40 325 124 22 281 321 17 26 95 124 110 95 93 99 109 124 140 140 137 133 135 141 150 147 150 144 141 141 133 125 122 123 116 137 134 136 139 137 136 131 116 101 85
250 258 22 23 355 316 12 326 352 267 180 139 72 92 107 108 124 112 109 92 100 113 128 148 145 137 143 138 135 127 130 131 151 143 125 131 123 127 134 138 143 146 145 143 141 121 95 95 86
222 286 8 22 18 321 53 330 306 306 11 342 124 124 119 124 107 99 105 122 126 118 111 126 137 139 142 139 138 141 153 171 152 149 132 144 126 142 147 143 143 150 146 140 140 121 102 82 70
258 239 322 342 349 303 201 213 334 23 82 180 118 127 130 131 130 117 105 114 126 129 122 131 138 147 152 145 149 168 176 157 152 147 144 145 144 156 161 158 159 159 159 157 157 129 111 101 91
244 282 299 332 258 245 328 202 165 85 111 108 134 142 141 114 113 107 116 108 122 113 112 134 142 146 154 162 153 151 145 136 164 178 169 164 176 191 190 176 169 170 167 161 156 139 137 122 107
9 290 284 263 210 171 197 172 220 130 114 130 117 110 113 102 118 129 125 127 126 124 122 129 135 141 141 142 145 146 136 157 189 193 190 190 198 193 188 179 173 171 170 171 163 156 159 153 155
285 275 202 215 195 162 52 321 116 148 137 115 127 129 125 153 165 131 136 143 139 141 134 143 155 155 150 147 158 156 172 206 201 199 196 203 201 194 188 184 178 178 175 168 156 159 163 169 182
251 239 299 301 200 185 107 283 136 155 151 139 142 152 151 162 138 132 134 135 143 151 154 161 160 162 165 168 180 196 209 206 200 204 192 202 200 194 189 190 189 183 177 176 177 174 183 188 197
218 259 143 230 214 256 145 251 137 153 161 150 151 163 156 155 154 147 149 151 155 156 163 173 177 177 182 185 201 201 204 203 207 206 204 205 204 193 193 200 193 184 185 185 191 193 201 184 205
274 208 219 148 292 230 286 58 133 158 170 161 166 168 169 167 157 158 160 162 165 164 171 174 179 179 190 200 202 205 205 205 218 200 208 202 204 198 199 206 191 190 196 195 202 198 196 204 202
297 302 273 136 236 272 260 140 256 158 181 173 199 170 180 174 159 174 170 170 173 173 179 186 186 192 193 198 205 204 205 210 212 211 220 196 205 203 202 208 202 199 203 208 198 191 196 197 195
250 262 258 169 132 261 262 249 179 157 189 184 196 183 199 182 170 173 185 186 186 188 189 193 194 198 201 204 206 210 208 210 209 212 212 211 210 207 207 211 206 207 205 200 198 200 203 206 201
233 250 198 280 252 246 271 241 183 174 190 198 200 195 195 194 185 182 188 192 193 198 197 200 202 203 207 214 203 208 211 219 211 213 217 217 215 213 213 213 211 210 210 203 203 205 207 207 213
225 231 200 253 262 297 267 288 279 180 193 199 202 208 196 198 194 189 192 196 198 201 200 205 206 207 207 209 209 208 209 210 216 218 219 220 217 216 217 218 215 212 212 211 207 209 206 205 228
261 233 210 273 279 290 217 256 181 263 186 202 208 204 209 202 201 196 193 199 202 201 204 205 209 209 209 207 215 209 216 216 216 216 219 224 218 219 219 219 216 215 214 217 208 203 197 194 253
221 211 229 247 253 250 215 247 171 205 217 201 195 196 206 206 209 205 200 198 203 204 205 206 211 213 213 211 212 221 212 223 224 205 211 222 211 211 215 217 214 213 216 211 216 198 192 223 242
213 223 228 234 229 236 255 239 261 267 186 167 279 205 197 205 213 209 205 202 203 199 204 207 211 215 214 215 216 216 220 223 228 230 206 213 210 203 207 207 216 214 210 200 194 211 215 230 245
209 230 229 207 267 222 211 236 244 278 60 332 273 266 275 210 208 216 215 210 209 207 202 207 210 214 212 208 217 218 216 226 230 221 215 209 208 221 231 240 214 207 208 214 218 205 230 240 244
239 217 239 262 298 277 234 211 230 210 231 218 246 273 230 217 232 219 222 218 217 211 208 204 215 215 216 218 214 222 218 218 223 217 217 214 227 225 226 210 208 212 213 198 199 214 224 237 233
251 259 225 228 221 244 240 249 247 167 220 166 254 224 16 157 201 241 238 227 221 221 212 207 214 220 219 220 207 214 219 217 219 214 216 217 220 221 204 201 204 207 202 199 214 217 240 227 222
193 232 230 245 239 236 255 232 243 127 256 258 286 193 198 81 120 165 212 224 227 218 217 212 214 222 221 219 217 211 219 223 213 212 219 220 214 214 210 204 202 198 201 209 209 224 223 215 218
225 216 208 224 218 218 254 261 169 243 274 205 268 181 185 221 173 148 163 179 195 203 206 207 210 217 216 213 216 207 210 218 204 205 216 216 219 222 214 206 201 198 208 215 207 214 209 216 213